Погода в Гдове

Погода в Гдове : погода сейчас, прогноз погоды и архив. Всё, что Вы хотите узнать о погоде в Гдове!

Хотите узнать прогноз погоды в Гдове? Тогда Вам сюда: Погода в Гдове

Поиск расширенной информации на нашем сайте:

Другие новости

Новости СМИ2

Главная страница сайта

Новости сайта

03.07.2017

Напоминаем, что на нашем специализированном сайте Метеоцентр.Азия вы можете получить высокодетализированные автоматические прогнозы погоды по пунктам России, СНГ и мира в авиационном формате (включающие направление и скорость ветра, видимость, явления погоды, количество и форму облачности, нижнюю и верхнюю границу облачности).

Рекомендуем: купить светильник светодиодный потолочный

Погода в Гдове - сегодня

Время (UTC), дата Ветер
(°,м/с) 
Видим.   Явления Облачность Т
(°С)
Тd
(°С)
f(%) Тe
(°С)
Pmin
(гПа)
dP
(гПа)
Po
(мм)
O2
(г/м3)
Тmin Tmax R s Состояние
почвы
21 12.12.17 180 (Ю) 7-12{13}  10 км  {ливн. осадки}  10/10 600 м кучево-дожд. 
[Cb calv]
+3.9 +2.2 89 +1  991.3  -0.3  740  294           
00 13.12.17 190 (Ю) 8-13{14}  10 км  {ливн. осадки}  10/10 600 м кучево-дожд. 
[Cb calv]
+4.1 +1.9 86 +1  991.4  740  293           
03 13.12.17 210 (ЮЗ) 9-13{15}  10 км    10/10 600 м кучево-дожд. 
[Cb calv]
+2.6 +0.7 87 -1  991.7  0.3  740  295  +1.3       
06 13.12.17 240 (ЮЗ) 5{14}  10 км  {ливн. осадки}  9/9 600 м 
[Sc]
+0.8 -0.5 91 -2  998  6.1  745  299  +0.7       
09 13.12.17 230 (ЮЗ) 20000 м    3/3 600 м 
[Sc]
+0.8 -1.9 82 -2  1002.3  4.3  748  301           
12 13.12.17 220 (ЮЗ) 20000 м    3/3 300 м 
[St]
+0.7 -1.7 84 -2  1004.2  1.8  749  301           
15 13.12.17 200 (Ю) 20000 м    9/9 600 м 
[Sc]
+0.2 -2.1 85 -3  1005.2  750  302      0.5     
18 13.12.17 190 (Ю) 6-10{11}  20000 м    9/9 600 м 
[Sc]
+0.9 -1.1 86 -2  1005.2  0.1  750  301    +1.3       
21 13.12.17 190 (Ю) 6{10}  20000 м    9/9 600 м 
[Sc]
+1.6 -0.6 85 -2  1005.8  0.5  751  301           
00 14.12.17 210 (ЮЗ) 5{11}  20000 м    4/3 600 м верхняя 
[Sc|Ci fib]
+1 -2.7 76 -2  1006.1  0.3  751  302           
03 14.12.17 170 (Ю) 20000 м    1/1 600 м 
[Sc]
-0.9 -3.6 82 -4  1005.4  -0.7  750  304  -0.9         
06 14.12.17 160 (Ю) 20000 м    3/3 300 м 
[St]
-1.6 -3.9 84 -5  1004.6  -0.8  750  304  -1.6         
09 14.12.17 150 (ЮВ) 20000 м    9/1 600 м верхняя 
[Sc|Ci fib]
-1.1 -4 81 -4  1004.3  -0.3  749  304           
12 14.12.17 140 (ЮВ) 5{10}  20000 м    1/1 600 м 
[Sc]
-1 -4.2 79 -4  1001.9  4.6  748  303           
15 14.12.17 120 (ЮВ) 20000 м    3/3 600 м 
[Sc]
-2.2 -4.3 85 -6  1000.5  -1.4  747  304           
18 14.12.17 120 (ЮВ) 5{11}  20000 м    3/3 600 м 
[Sc]
-1.2 -4.7 77 -4  998.3  -2.2  745  302    -0.8       
21 14.12.17 120 (ЮВ) 20000 м    10/10 600 м кучево-дожд. 
[Cb calv]
-0.8 -4 79 -4  996.3  -1.9  743  301           
00 15.12.17 120 (ЮВ) 2000 м  слаб. ливневой снег  10/10 600 м кучево-дожд. 
[Cb cap]
-0.4 -2.3 87 -3  995  -1.3  743  300           
03 15.12.17 110 (В) 2000 м  слаб. ливневой снег  9/9 600 м кучево-дожд. 
[Cb cap]
-0.3 -1.6 91 -3  993.9  -1.1  742  299  -2.2    0.5     
06 15.12.17 130 (ЮВ) 10 км  в посл. час ливневой снег  10/10 600 м кучево-дожд. 
[Cb calv]
-0.3 -0.9 96 -2  993.3  -0.5  741  299  -1.2    равномерный
мокрый или
старый снег
100% 
09 15.12.17 180 (Ю) 2000 м  слаб. ливневой снег  10/10 600 м кучево-дожд. 
[Cb cap]
+0.3 -0.3 96 -3  994  0.6  742  299           
12 15.12.17 200 (Ю) 6{13}  10 км  {ливн. осадки}  10/10 300 м 
[St]
+0.9 -0.4 91 -2  996.4  2.4  744  299           
15 15.12.17 180 (Ю) 6{11}  10 км  {ливн. осадки}  10/10 600 м кучево-дожд. 
[Cb calv]
+1.1 -0.5 89 -2  998  1.7  745  299         
18 15.12.17 180 (Ю) 6{10}  10 км  {ливн. осадки}  10/10 600 м кучево-дожд. 
[Cb calv]
+1.2 -0.5 88 -2  999.8  1.8  746  299    +1.3     
21 15.12.17 170 (Ю) 10 км    10/10 600 м кучево-дожд. 
[Cb calv]
+1.1 -1.4 83 -2  1000.9  1.1  747  300           
Время (UTC), дата Ветер
(°,м/с) 
Видим.   Явления Облачность Т
(°С)
Тd
(°С)
f(%) Тe
(°С)
Pmin
(гПа)
dP
(гПа)
Po
(мм)
O2
(г/м3)
Тmin Tmax R s Состояние
почвы

Для получения пояснительной информации подведите курсор к названию столбца.

ПОГОДА в Гдове - архив

Всё, что Вы хотите узнать о погоде в Гдове - удобно и подробно!

Выберите нужную дату (начиная с 1 января 2015* года) и нажмите кнопку "Найти".
Будут отображены архивные сводки погоды по пункту Гдов, начиная с указанной даты.


Отображать данные в формате CSV (для использования в таблицах Excel)


Внимание! Наш архив погоды предназначен исключительно для личного некоммерческого использования в познавательных целях. Если Вам необходимы официальные справки о состоянии погоды (для производственных, юридических, коммерческих и т.п. целей), обращайтесь в органы Росгидромета.

*Примечание: данная дата относится к архиву по метеостанциям СССР (Россия, СНГ, Балтия).
Архив по метеостанциям Зарубежной Европы и Азии (кроме Китая) хранится 10 дней, по другим регионам земного шара (Китай, Африка, Америка, Австралия, Океания) - 1 день.

Гдов - район местоположения метеостанции


Название, широта, долгота, высота метеостанции:
Гдов 58.7°ш. 27.8°д. 40 м над ур. моря [Российская Федерация]

Дополнительная информация

В oтличие oт бoльшинства пoгoдных сайтoв мы публикуем пoдрoбную метеoинфoрмацию в детальнoм прoфессиoнальнoм фoрмате.

Характеристики температуры и влажнoсти вoздуха измеряются на высoте 2 м в тени вдали oт зданий и деревьев.
Скoрoсть ветра измеряется на высoте 10 м (на урoвне рoста челoвека скoрoсть ветра ниже в 1.5-2 раза). Если метеoстанция нахoдится в гoрoде или в лесу, тo скoрoсть ветра занижена на 2-4 м/с пo сравнению с oткрытым местoм. Скoрoсть ветра над акватoриями крупных рек и oзёр, а также на вершинах хoлмoв на 2-5 м/с выше, чем в oбычных услoвиях.
Атмoсфернoе давление в разных тoчках местнoсти мoжет значительнo oтличаться oт давления на метеoстанции, в зависимoсти oт услoвий рельефа (при пoдъёме на 10 м давление пoнижается примернo на 1 мм рт.ст.).